RH
78 77 76 75 76 75 76 76 75 75 74 74 75 74 73 73 73 75 76 76 77 80 80 80 84 89 87 76 68 67 67 66 65 64 64 66 65 64 64 60 57 56
77 77 76 76 76 76 75 74 74 73 71 71 71 71 72 71 70 72 76 77 79 81 80 80 85 88 85 75 66 66 67 67 67 67 67 67 65 65 64 62 60 57
77 77 77 77 76 75 75 74 73 72 70 69 69 69 71 70 68 70 76 78 80 82 80 81 86 87 84 75 66 65 67 66 66 67 67 64 62 64 64 63 63 58
77 78 77 76 75 74 75 75 75 73 72 72 70 69 70 70 69 72 77 79 81 83 81 82 86 86 82 76 69 68 67 65 65 67 68 64 62 64 64 64 64 59
77 78 77 76 76 75 75 76 75 74 73 73 72 71 71 71 71 73 78 81 83 84 83 84 86 84 81 76 71 71 69 65 65 67 68 65 62 64 65 65 64 60
77 78 77 77 77 76 77 76 74 74 74 75 75 74 73 71 71 73 77 81 83 84 85 86 86 82 79 75 73 74 71 66 66 67 66 65 63 64 65 65 63 60
77 78 77 78 78 77 77 76 75 76 75 76 77 75 74 73 72 72 76 81 82 83 85 86 85 81 76 74 73 75 74 70 69 68 68 66 65 65 65 66 64 60
76 77 78 78 78 78 78 77 77 77 77 79 79 77 75 73 71 71 75 80 82 82 83 84 83 79 75 73 73 74 76 76 74 72 70 70 69 67 66 67 66 61
76 77 78 78 79 79 79 78 77 78 79 80 80 79 77 75 73 72 75 79 81 82 83 83 82 80 76 73 72 72 75 77 77 74 72 72 71 69 66 65 66 64
76 77 78 79 80 80 80 80 78 79 80 81 81 80 80 78 77 76 76 78 81 82 83 83 82 81 78 75 72 72 73 75 76 75 72 71 72 70 67 64 64 63
75 77 78 80 81 81 81 80 79 80 81 82 83 82 82 81 81 81 80 80 80 80 81 82 82 82 79 76 74 72 73 74 75 74 71 69 70 71 69 65 63 62
74 76 78 79 80 80 81 81 80 80 81 83 84 84 84 84 83 83 82 81 79 78 80 81 82 82 80 77 76 74 73 75 75 75 71 68 70 71 69 66 64 63
73 75 76 78 79 80 81 81 80 80 81 84 85 84 85 85 85 84 82 80 79 79 81 82 82 82 80 78 78 76 74 75 76 76 73 70 70 70 69 68 66 65
72 74 75 76 78 79 80 81 80 81 82 84 85 85 85 85 85 84 83 81 81 80 81 82 83 82 80 80 80 79 77 77 76 76 74 72 70 70 70 70 69 67
72 74 75 76 77 79 81 82 81 82 83 84 85 86 86 85 85 85 84 84 84 84 83 84 85 82 79 79 79 79 80 79 78 77 75 73 72 71 72 72 71 70
72 74 76 77 78 79 81 82 82 83 84 85 86 86 86 86 86 86 86 86 86 87 87 86 85 82 78 77 76 77 79 80 80 79 77 76 75 74 74 73 72 72
72 74 76 78 79 80 81 82 83 83 84 85 86 86 86 85 86 87 87 88 88 88 88 88 85 81 78 78 77 77 79 80 80 80 79 79 77 76 76 74 73 74
72 75 76 78 80 81 83 84 84 84 85 86 86 86 86 86 87 87 87 88 89 88 89 88 85 80 79 79 79 79 80 80 81 81 81 80 79 78 77 75 75 78
72 75 77 78 80 82 84 84 85 86 86 86 86 86 87 88 87 87 88 89 89 89 89 88 85 82 81 81 80 80 81 81 82 82 82 80 79 79 78 78 78 81
73 75 76 78 80 81 84 85 86 87 86 86 87 87 88 89 88 88 89 89 89 89 90 89 86 83 83 83 82 81 81 82 83 83 82 81 80 80 80 80 80 80
73 75 77 78 80 81 84 86 87 87 87 87 87 88 89 89 89 89 89 89 89 89 90 89 87 86 86 85 83 82 82 83 84 85 84 84 83 82 81 81 81 81
73 76 77 79 80 82 84 86 87 87 88 88 88 88 89 89 89 90 89 90 90 89 90 89 87 87 87 86 84 83 83 85 86 86 87 87 86 84 83 82 82 83
72 76 78 79 81 83 84 85 86 87 87 87 88 89 90 90 90 90 89 90 90 90 90 89 89 89 88 86 85 84 85 87 87 87 88 88 87 86 84 84 84 83
72 74 77 79 80 82 83 84 85 86 86 87 88 89 89 90 89 90 90 90 89 89 89 89 89 89 88 86 86 85 86 87 87 89 90 89 89 89 87 86 86 85
71 73 75 78 80 81 82 82 83 85 86 86 88 88 88 89 89 90 91 90 89 88 88 89 89 89 89 88 87 85 86 87 88 90 92 92 92 92 90 89 89 89
70 72 74 76 78 79 81 81 82 84 85 86 88 88 88 89 89 90 90 90 90 89 88 89 89 89 88 87 86 85 85 87 90 92 93 93 93 93 94 93 92 91
Wind_Speed
42 41 40 39 38 37 36 35 35 35 35 34 33 33 33 33 31 30 30 30 30 29 27 25 23 22 22 21 21 22 23 23 22 21 21 21 20 20 20 18 17 17
42 41 40 39 38 38 37 37 36 36 36 36 35 34 33 32 31 30 30 30 30 29 28 26 24 23 23 23 22 23 24 24 23 22 23 23 22 22 21 20 19 18
43 41 40 39 39 39 38 37 37 37 36 36 35 34 32 31 31 30 30 29 30 30 28 27 25 24 24 24 24 24 25 25 24 24 23 23 23 23 23 21 20 19
42 42 41 41 40 40 38 37 37 37 36 35 34 34 33 32 31 30 30 29 29 29 29 28 26 25 26 26 25 25 25 25 24 24 24 24 24 24 23 22 21 19
43 43 42 41 40 39 38 37 37 37 37 36 34 33 32 32 31 31 30 30 30 30 30 29 28 27 27 27 27 26 25 25 26 26 26 26 25 25 24 23 22 20
41 41 41 40 39 38 37 38 38 38 37 36 34 33 33 32 32 32 31 31 30 30 30 30 29 29 28 28 28 28 27 27 27 27 27 27 26 25 25 24 23 22
39 40 40 40 39 38 38 38 38 38 37 35 34 33 33 33 33 33 32 32 31 31 31 31 31 31 30 29 29 29 29 29 29 29 29 28 27 27 27 26 25 23
39 39 40 40 39 39 39 39 39 38 36 34 33 33 34 34 34 34 33 32 32 32 32 33 33 33 32 31 31 31 31 31 31 31 31 30 29 29 29 28 27 25
39 38 39 40 40 40 40 40 39 37 36 34 34 34 34 34 35 35 34 33 33 33 33 34 34 34 33 33 33 32 32 33 33 33 33 32 32 31 30 29 28 27
39 38 38 40 40 40 39 39 38 37 35 35 34 33 34 34 35 35 35 34 34 34 35 35 35 35 35 35 34 34 34 34 34 34 34 34 33 32 30 29 29 29
39 38 39 40 40 39 39 38 38 36 35 34 34 33 34 34 34 35 35 35 36 36 36 36 36 36 36 36 36 36 35 35 34 34 35 35 35 34 32 31 31 30
40 40 40 40 40 39 38 38 38 37 35 34 34 34 34 34 35 35 36 37 38 38 38 38 37 36 37 37 37 37 36 35 35 35 35 35 35 35 34 33 32 32
41 42 41 40 40 39 38 38 39 39 37 35 34 34 35 35 36 36 37 39 39 39 39 38 37 37 37 38 38 37 37 36 35 35 35 35 35 35 34 34 34 33
43 42 41 41 40 39 39 39 40 39 38 36 35 35 36 36 37 38 39 40 40 40 39 38 37 38 38 38 38 37 37 37 36 35 35 34 34 34 34 35 34 34
42 40 40 40 39 39 39 40 40 40 38 37 36 36 37 37 37 39 40 40 40 39 39 38 38 38 39 40 39 38 37 37 36 36 35 35 34 34 34 35 35 34
40 39 39 39 39 39 40 40 40 39 37 37 38 38 38 38 38 39 40 40 39 38 38 38 38 40 41 41 41 40 38 37 36 36 36 35 34 34 34 35 35 35
39 39 38 39 40 40 39 39 39 38 38 39 39 39 40 40 40 40 41 40 39 38 38 38 40 41 42 42 42 40 39 37 36 36 36 36 35 35 35 36 36 34
38 38 38 39 39 39 38 38 38 39 39 39 40 41 41 41 41 42 41 39 38 38 39 39 41 42 43 42 42 41 40 38 37 36 36 35 36 36 35 36 34 29
37 37 38 38 38 38 37 37 38 39 40 41 41 42 42 41 42 41 40 39 38 39 39 39 41 42 43 43 41 40 40 39 37 37 36 36 36 36 35 35 32 28
37 38 38 38 38 37 37 37 39 40 41 41 42 41 40 40 40 40 39 39 40 39 39 39 41 42 43 42 41 40 39 39 38 37 36 36 36 35 35 34 32 31
37 38 38 37 37 37 37 38 39 40 41 41 40 40 40 40 39 39 39 39 39 39 37 38 41 42 42 41 40 40 38 38 38 37 36 36 35 34 34 33 32 33
38 37 36 35 36 36 36 37 39 40 41 40 39 39 38 38 38 38 38 38 38 37 37 39 40 40 40 40 40 39 38 37 37 37 36 34 33 33 33 32 32 31
37 35 34 34 34 35 36 38 39 40 40 40 38 37 36 36 36 37 37 37 36 37 39 40 39 38 40 40 39 38 37 36 37 37 35 33 32 32 32 31 31 31
36 36 35 36 37 39 40 40 41 41 40 40 39 37 36 36 36 35 35 36 37 39 41 40 38 38 39 39 39 38 37 37 37 36 34 33 32 31 31 30 29 29
36 38 38 39 39 41 41 41 41 41 40 39 39 38 37 36 35 34 33 35 38 40 41 39 37 36 37 37 37 37 37 37 37 35 33 32 30 29 29 28 27 26
39 40 40 41 41 42 41 40 40 38 37 37 37 36 34 33 34 34 33 35 37 38 39 39 37 36 36 37 36 37 37 37 36 34 33 31 30 28 27 26 25 23
Wind_Direction
212 212 213 214 215 217 217 217 218 219 222 224 226 229 231 234 237 237 237 237 238 239 239 239 241 242 240 234 230 228 227 227 227 229 234 238 242 242 242 243 244 244
212 213 213 214 214 216 218 219 220 221 223 226 228 231 232 234 236 237 237 236 236 238 238 238 239 240 237 233 230 228 228 230 230 232 237 240 242 242 242 245 247 246
213 212 213 214 214 215 217 218 220 222 225 227 229 231 232 233 235 236 237 237 236 236 237 236 238 238 235 232 230 229 230 233 233 234 238 241 242 242 244 247 250 250
213 213 213 214 215 216 217 217 219 221 223 226 228 229 231 231 233 235 236 236 235 235 235 236 236 235 234 233 230 230 231 234 236 237 240 243 244 243 244 247 250 250
213 213 214 215 215 216 216 216 218 220 222 224 226 227 228 229 230 232 234 234 232 233 233 234 235 234 233 233 231 231 232 235 237 238 241 244 245 244 243 245 248 247
213 213 214 215 215 215 216 217 219 221 221 222 223 224 226 226 228 230 232 232 230 231 231 232 232 232 231 232 232 232 233 235 237 238 241 243 244 244 243 244 245 245
213 213 213 214 214 215 216 217 219 220 221 222 221 222 224 224 226 228 230 230 229 229 230 231 231 231 230 230 231 233 234 236 237 238 240 241 243 244 243 243 244 244
212 212 213 213 213 214 215 217 219 220 220 220 220 221 223 223 225 226 228 228 228 229 230 231 231 231 230 230 230 233 235 236 237 238 239 241 242 244 244 243 242 243
212 211 211 212 212 213 214 216 218 219 219 219 218 219 221 223 225 225 226 227 227 229 230 230 230 230 230 231 232 233 234 236 237 237 239 240 241 244 244 242 241 241
211 211 211 211 211 213 214 215 217 218 218 218 217 218 219 221 224 224 225 225 226 228 228 228 228 228 229 231 233 234 235 236 238 238 239 240 241 243 244 242 240 241
211 210 210 211 211 212 213 214 215 217 218 217 216 217 218 220 221 221 222 224 225 227 227 227 227 227 228 230 233 234 236 237 238 239 240 240 242 243 244 243 243 243
210 210 210 210 210 211 212 213 214 216 217 217 216 216 217 219 220 220 221 223 225 227 227 226 226 226 228 230 232 233 235 236 237 238 240 241 241 242 243 244 245 245
210 210 210 210 210 210 211 211 213 214 215 215 215 216 217 219 220 221 222 224 225 226 226 226 225 225 227 228 230 231 233 234 235 236 238 240 241 242 243 245 246 246
211 211 210 210 210 210 210 210 211 213 214 213 214 215 216 218 220 222 223 225 225 225 225 224 223 224 226 226 227 228 230 231 233 234 235 237 240 242 243 245 246 246
210 210 209 209 209 209 209 209 210 212 211 211 212 213 216 218 220 222 223 223 224 223 223 222 221 223 226 226 226 226 227 229 231 232 233 235 237 240 243 244 246 246
209 208 208 207 208 208 208 208 209 210 209 210 212 213 215 217 218 221 222 222 222 221 221 220 221 224 227 228 228 227 226 227 229 231 232 233 235 237 240 243 245 245
207 206 206 206 207 207 207 207 207 207 208 210 211 212 214 215 217 219 220 221 221 220 220 219 221 225 228 229 229 228 227 226 228 230 230 231 233 235 237 241 244 244
206 205 205 206 206 206 205 206 206 207 208 209 210 212 213 214 215 218 219 219 219 220 220 220 222 226 228 228 229 228 228 227 228 229 229 230 232 234 235 239 241 240
204 203 204 205 205 205 204 204 204 206 208 209 210 212 213 213 214 216 217 218 218 219 220 221 224 227 228 228 228 228 228 228 228 228 229 230 232 233 234 236 236 234
203 203 204 205 204 203 203 203 204 207 208 210 212 212 212 212 214 215 215 216 218 219 219 221 225 227 228 227 227 228 229 228 227 228 229 231 232 233 233 234 232 232
202 203 203 203 202 202 202 203 205 208 209 211 212 212 212 213 213 214 215 216 217 218 219 222 225 227 227 227 227 228 229 228 227 226 228 230 232 233 234 234 232 232
202 202 201 201 201 201 202 204 206 209 210 211 212 214 214 214 214 215 215 215 216 216 218 222 225 226 226 226 227 228 228 227 225 225 227 228 229 232 234 235 234 233
201 199 199 199 200 201 203 206 208 210 211 211 212 213 214 214 214 215 216 215 215 216 218 222 225 225 226 226 227 227 225 224 223 223 224 225 228 231 233 233 234 235
200 199 199 199 200 202 204 206 209 210 211 211 212 212 213 214 214 215 216 215 215 217 219 221 223 224 225 225 226 225 224 223 223 222 221 223 226 228 231 233 233 234
200 200 201 201 202 205 206 207 208 210 211 212 212 213 213 214 214 214 215 215 216 219 220 221 222 224 224 224 224 225 224 223 221 219 218 221 222 223 228 230 230 229
201 202 203 203 205 206 207 208 209 210 211 212 213 213 213 213 213 213 214 215 216 218 220 221 221 222 223 223 224 224 223 221 219 216 216 218 219 219 221 221 222 223